TimeCDT,TemperatureF,Dew PointF,Humidity,Sea Level PressureIn,VisibilityMPH,Wind Direction,Wind SpeedMPH,Gust SpeedMPH,PrecipitationIn,Events,Conditions,WindDirDegrees,DateUTC
12:14 AM,57.2,53.6,88,29.94,10.0,SE,6.9,-,N/A,,Clear,140,2013-10-10 05:14:00
12:34 AM,59.0,53.6,82,29.93,10.0,SE,9.2,-,N/A,,Clear,140,2013-10-10 05:34:00
12:54 AM,60.8,53.6,77,29.93,10.0,SE,9.2,-,N/A,,Clear,140,2013-10-10 05:54:00
1:15 AM,59.0,53.6,82,29.93,10.0,SE,9.2,-,N/A,,Clear,140,2013-10-10 06:15:00
1:34 AM,57.2,53.6,88,29.93,10.0,SE,8.1,-,N/A,,Clear,130,2013-10-10 06:34:00
1:54 AM,57.2,51.8,82,29.93,10.0,SE,9.2,-,N/A,,Clear,130,2013-10-10 06:54:00
2:15 AM,57.2,51.8,82,29.93,10.0,SE,9.2,-,N/A,,Clear,130,2013-10-10 07:15:00
2:34 AM,57.2,51.8,82,29.92,10.0,SE,6.9,-,N/A,,Clear,130,2013-10-10 07:34:00
2:55 AM,57.2,51.8,82,29.92,10.0,SE,5.8,-,N/A,,Clear,130,2013-10-10 07:55:00
3:15 AM,55.4,51.8,88,29.92,10.0,ESE,4.6,-,N/A,,Clear,110,2013-10-10 08:15:00
3:35 AM,53.6,50.0,88,29.91,10.0,ESE,4.6,-,N/A,,Clear,110,2013-10-10 08:35:00
3:54 AM,53.6,50.0,88,29.91,10.0,ESE,5.8,-,N/A,,Clear,110,2013-10-10 08:54:00
4:15 AM,53.6,50.0,88,29.91,10.0,ESE,6.9,-,N/A,,Clear,110,2013-10-10 09:15:00
4:35 AM,53.6,50.0,88,29.91,10.0,ESE,6.9,-,N/A,,Clear,110,2013-10-10 09:35:00
4:55 AM,53.6,50.0,88,29.90,10.0,ESE,6.9,-,N/A,,Clear,110,2013-10-10 09:55:00
5:15 AM,53.6,50.0,88,29.90,10.0,ESE,8.1,-,N/A,,Clear,110,2013-10-10 10:15:00
5:35 AM,53.6,50.0,88,29.89,10.0,ESE,8.1,-,N/A,,Scattered Clouds,120,2013-10-10 10:35:00
5:54 AM,53.6,50.0,88,29.89,10.0,ESE,9.2,-,N/A,,Clear,120,2013-10-10 10:54:00
6:14 AM,53.6,50.0,88,29.89,10.0,ESE,9.2,-,N/A,,Clear,120,2013-10-10 11:14:00
6:34 AM,53.6,50.0,88,29.89,10.0,ESE,9.2,-,N/A,,Clear,120,2013-10-10 11:34:00
6:55 AM,53.6,50.0,88,29.88,10.0,ESE,8.1,-,N/A,,Clear,120,2013-10-10 11:55:00
7:15 AM,53.6,50.0,88,29.88,10.0,ESE,8.1,-,N/A,,Clear,120,2013-10-10 12:15:00
7:35 AM,53.6,51.8,94,29.88,10.0,ESE,6.9,-,N/A,,Clear,120,2013-10-10 12:35:00
7:55 AM,53.6,50.0,88,29.88,10.0,ESE,6.9,-,N/A,,Clear,120,2013-10-10 12:55:00
8:14 AM,53.6,51.8,94,29.88,10.0,ESE,8.1,-,N/A,,Clear,120,2013-10-10 13:14:00
8:34 AM,53.6,51.8,94,29.88,10.0,ESE,6.9,-,N/A,,Clear,120,2013-10-10 13:34:00
8:55 AM,55.4,51.8,88,29.87,10.0,ESE,8.1,-,N/A,,Clear,120,2013-10-10 13:55:00
9:15 AM,57.2,53.6,88,29.87,10.0,SE,9.2,-,N/A,,Clear,130,2013-10-10 14:15:00
9:34 AM,60.8,53.6,77,29.87,10.0,SE,9.2,-,N/A,,Clear,140,2013-10-10 14:34:00
9:55 AM,60.8,53.6,77,29.87,10.0,SE,11.5,-,N/A,,Clear,140,2013-10-10 14:55:00
10:15 AM,62.6,53.6,72,29.87,10.0,SSE,9.2,-,N/A,,Clear,150,2013-10-10 15:15:00
10:34 AM,64.4,55.4,73,29.86,10.0,SE,11.5,-,N/A,,Clear,140,2013-10-10 15:34:00
10:54 AM,64.4,55.4,73,29.85,10.0,SSE,8.1,-,N/A,,Clear,150,2013-10-10 15:54:00
11:15 AM,64.4,55.4,73,29.86,10.0,SSE,10.4,-,N/A,,Clear,150,2013-10-10 16:15:00
11:35 AM,66.2,55.4,68,29.85,10.0,SSE,11.5,17.3,N/A,,Clear,150,2013-10-10 16:35:00
11:55 AM,68.0,55.4,64,29.86,10.0,SSE,10.4,-,N/A,,Clear,150,2013-10-10 16:55:00
12:14 PM,69.8,57.2,64,29.85,10.0,SSE,9.2,-,N/A,,Clear,150,2013-10-10 17:14:00
12:34 PM,71.6,57.2,60,29.85,10.0,SE,12.7,18.4,N/A,,Clear,140,2013-10-10 17:34:00
12:54 PM,73.4,57.2,57,29.83,10.0,SE,9.2,-,N/A,,Clear,140,2013-10-10 17:54:00
1:15 PM,73.4,57.2,57,29.82,10.0,SE,10.4,-,N/A,,Clear,140,2013-10-10 18:15:00
1:34 PM,75.2,57.2,53,29.81,10.0,SE,13.8,18.4,N/A,,Clear,130,2013-10-10 18:34:00
1:54 PM,75.2,57.2,53,29.81,10.0,SE,15.0,18.4,N/A,,Clear,140,2013-10-10 18:54:00
2:14 PM,75.2,57.2,53,29.80,10.0,SE,12.7,-,N/A,,Clear,140,2013-10-10 19:14:00
2:34 PM,75.2,57.2,53,29.79,10.0,SE,10.4,18.4,N/A,,Clear,140,2013-10-10 19:34:00
2:55 PM,78.8,57.2,47,29.78,10.0,SE,13.8,18.4,N/A,,Clear,130,2013-10-10 19:55:00
3:14 PM,80.6,57.2,45,29.77,10.0,SE,11.5,18.4,N/A,,Clear,140,2013-10-10 20:14:00
3:34 PM,78.8,57.2,47,29.76,10.0,SSE,15.0,21.9,N/A,,Clear,150,2013-10-10 20:34:00
3:55 PM,80.6,55.4,42,29.75,10.0,SSE,13.8,25.3,N/A,,Clear,150,2013-10-10 20:55:00
4:15 PM,80.6,55.4,42,29.74,10.0,SSE,13.8,26.5,N/A,,Clear,150,2013-10-10 21:15:00
4:34 PM,80.6,55.4,42,29.74,10.0,SSE,11.5,19.6,N/A,,Clear,160,2013-10-10 21:34:00
4:54 PM,80.6,55.4,42,29.74,10.0,SSE,13.8,23.0,N/A,,Clear,160,2013-10-10 21:54:00
5:14 PM,80.6,55.4,42,29.73,10.0,SSE,12.7,18.4,N/A,,Clear,150,2013-10-10 22:14:00
5:34 PM,80.6,55.4,42,29.74,10.0,SSE,9.2,-,N/A,,Clear,150,2013-10-10 22:34:00
5:55 PM,78.8,55.4,44,29.73,10.0,SE,8.1,-,N/A,,Clear,140,2013-10-10 22:55:00
6:15 PM,78.8,55.4,44,29.73,10.0,SSE,9.2,-,N/A,,Clear,150,2013-10-10 23:15:00
6:35 PM,75.2,55.4,50,29.73,10.0,SE,6.9,-,N/A,,Clear,140,2013-10-10 23:35:00
6:54 PM,75.2,55.4,50,29.74,10.0,SE,5.8,-,N/A,,Clear,130,2013-10-10 23:54:00
7:15 PM,71.6,55.4,57,29.74,10.0,SE,5.8,-,N/A,,Clear,130,2013-10-11 00:15:00
7:34 PM,69.8,55.4,60,29.74,10.0,SE,6.9,-,N/A,,Clear,130,2013-10-11 00:34:00
7:54 PM,71.6,55.4,57,29.74,10.0,SE,9.2,-,N/A,,Clear,130,2013-10-11 00:54:00
8:15 PM,71.6,55.4,57,29.74,10.0,SE,6.9,-,N/A,,Clear,130,2013-10-11 01:15:00
8:35 PM,71.6,55.4,57,29.73,10.0,SE,8.1,-,N/A,,Clear,130,2013-10-11 01:35:00
8:55 PM,71.6,55.4,57,29.73,10.0,SE,8.1,-,N/A,,Clear,130,2013-10-11 01:55:00
9:14 PM,71.6,55.4,57,29.73,10.0,SE,11.5,-,N/A,,Clear,130,2013-10-11 02:14:00
9:34 PM,69.8,55.4,60,29.72,10.0,SE,10.4,-,N/A,,Clear,130,2013-10-11 02:34:00
9:54 PM,69.8,55.4,60,29.73,10.0,SE,10.4,-,N/A,,Clear,130,2013-10-11 02:54:00
10:14 PM,69.8,55.4,60,29.74,10.0,SE,9.2,-,N/A,,Clear,130,2013-10-11 03:14:00
10:34 PM,68.0,55.4,64,29.73,10.0,ESE,9.2,-,N/A,,Clear,120,2013-10-11 03:34:00
10:55 PM,68.0,55.4,64,29.73,10.0,ESE,6.9,-,N/A,,Clear,120,2013-10-11 03:55:00
11:14 PM,66.2,55.4,68,29.73,10.0,ESE,9.2,-,N/A,,Clear,120,2013-10-11 04:14:00
11:34 PM,66.2,55.4,68,29.73,10.0,SE,8.1,-,N/A,,Clear,130,2013-10-11 04:34:00
11:54 PM,66.2,55.4,68,29.73,10.0,ESE,10.4,-,N/A,,Clear,120,2013-10-11 04:54:00